TimePDT,TemperatureF,Dew PointF,Humidity,Sea Level PressureIn,VisibilityMPH,Wind Direction,Wind SpeedMPH,Gust SpeedMPH,PrecipitationIn,Events,Conditions,WindDirDegrees,DateUTC
12:53 AM,33.1,26.1,75,30.08,-9999.0,Calm,Calm,-,N/A,,Unknown,0,2013-04-20 07:53:00
1:53 AM,30.9,26.1,82,30.08,-9999.0,North,6.9,-,N/A,,Unknown,350,2013-04-20 08:53:00
2:53 AM,36.0,30.9,82,30.04,-9999.0,North,8.1,-,N/A,,Unknown,10,2013-04-20 09:53:00
3:53 AM,33.1,28.9,85,30.08,-9999.0,SW,3.5,-,N/A,,Unknown,220,2013-04-20 10:53:00
4:53 AM,30.9,26.1,82,30.08,-9999.0,SSW,5.8,-,N/A,,Unknown,210,2013-04-20 11:53:00
5:53 AM,28.9,25.0,85,30.08,-9999.0,Calm,Calm,-,N/A,,Unknown,0,2013-04-20 12:53:00
6:53 AM,36.0,30.0,79,30.09,-9999.0,Calm,Calm,-,N/A,,Unknown,0,2013-04-20 13:53:00
7:53 AM,41.0,32.0,70,30.10,-9999.0,ENE,3.5,-,N/A,,Unknown,60,2013-04-20 14:53:00
8:53 AM,44.1,28.9,55,30.11,-9999.0,North,6.9,-,N/A,,Unknown,10,2013-04-20 15:53:00
9:53 AM,48.0,26.1,42,30.09,-9999.0,North,10.4,17.3,N/A,,Unknown,10,2013-04-20 16:53:00
10:53 AM,51.1,26.1,38,30.09,-9999.0,NE,11.5,17.3,N/A,,Unknown,40,2013-04-20 17:53:00
11:53 AM,53.1,24.1,32,30.10,-9999.0,NNE,10.4,18.4,N/A,,Unknown,20,2013-04-20 18:53:00
12:53 PM,55.0,24.1,30,30.09,-9999.0,Variable,5.8,-,N/A,,Unknown,0,2013-04-20 19:53:00
1:53 PM,55.9,21.0,26,30.07,-9999.0,NNE,6.9,17.3,N/A,,Unknown,20,2013-04-20 20:53:00
2:53 PM,59.0,19.9,22,30.03,-9999.0,NNE,9.2,19.6,N/A,,Unknown,30,2013-04-20 21:53:00
3:53 PM,61.0,21.0,21,30.03,-9999.0,North,11.5,21.9,N/A,,Unknown,360,2013-04-20 22:53:00
4:53 PM,60.1,19.9,21,30.03,-9999.0,North,10.4,18.4,N/A,,Unknown,360,2013-04-20 23:53:00
5:53 PM,57.9,19.0,22,30.04,-9999.0,NNE,13.8,-,N/A,,Unknown,20,2013-04-21 00:53:00
6:53 PM,55.0,19.0,24,30.04,-9999.0,NNE,9.2,-,N/A,,Unknown,30,2013-04-21 01:53:00
7:53 PM,45.0,21.0,39,30.08,-9999.0,North,3.5,-,N/A,,Unknown,360,2013-04-21 02:53:00
8:53 PM,43.0,19.0,38,30.09,-9999.0,Calm,Calm,-,N/A,,Unknown,0,2013-04-21 03:53:00
9:53 PM,39.0,21.0,49,30.11,-9999.0,South,5.8,-,N/A,,Unknown,190,2013-04-21 04:53:00
10:53 PM,34.0,19.0,54,30.12,-9999.0,South,5.8,-,N/A,,Unknown,170,2013-04-21 05:53:00
11:53 PM,32.0,19.9,61,30.11,-9999.0,SSW,4.6,-,N/A,,Unknown,200,2013-04-21 06:53:00